Theta_e
349 353 355 356 357 357 357 356 355 355 355 355 356 356 357 357 357 357 357 356 356 355 355 355 355 355 354 354 355 353 350 349 345 339 338 337 336 337 335 334 335 336 337 337 336 335 334 336 338 337 336 335 334 334 335 336 335 334 334 334 333 333 332
350 352 355 356 356 357 356 355 354 355 355 355 356 356 357 357 357 357 357 357 356 356 356 355 355 355 354 355 354 352 351 348 342 338 337 337 337 337 335 334 335 336 337 337 336 335 334 336 336 335 335 333 333 335 335 334 333 333 334 334 334 333 333
350 353 355 355 356 356 356 355 354 355 355 354 355 356 357 356 356 357 357 357 356 356 356 356 356 355 355 355 354 352 351 346 340 337 336 336 338 336 333 334 336 336 337 337 335 335 334 334 335 334 333 333 335 335 333 333 334 334 334 334 335 334 334
350 353 353 355 356 355 356 354 353 355 355 354 355 355 356 356 356 357 357 357 356 355 356 355 355 355 354 354 354 352 349 343 338 336 335 336 336 334 333 334 335 336 336 335 334 333 334 335 335 334 334 334 335 333 332 332 333 334 334 334 334 334 334
349 352 354 355 355 355 355 354 352 354 355 354 355 355 356 356 356 357 356 356 355 355 356 355 354 354 353 353 352 349 345 340 337 335 335 336 335 333 332 333 334 336 335 333 332 333 335 335 335 334 334 333 332 331 330 330 331 331 332 333 333 333 333
348 351 354 354 354 354 354 352 351 353 354 355 354 354 355 356 356 356 356 356 356 355 355 355 354 353 352 350 348 345 341 338 337 336 336 336 334 333 332 333 335 335 332 331 332 334 335 335 335 334 333 332 331 330 330 330 330 330 331 332 332 332 332
348 351 351 352 353 353 352 351 350 352 353 353 354 353 354 355 355 356 356 356 356 355 355 354 354 352 351 348 344 342 340 338 337 337 337 335 334 333 332 334 335 334 331 331 332 334 334 335 334 333 332 331 331 331 331 331 331 331 331 331 332 331 331
347 350 349 350 351 350 351 350 349 350 351 352 352 353 353 354 355 355 356 356 355 355 354 354 353 351 350 345 342 341 340 338 337 337 336 335 335 335 334 334 335 334 332 332 332 333 334 335 334 333 332 332 332 332 332 332 332 332 332 332 332 331 331
347 348 348 348 348 348 350 348 347 349 350 350 351 351 352 353 354 355 355 356 355 355 354 353 352 350 348 344 341 341 340 339 338 337 336 336 336 336 335 334 335 335 334 333 332 332 333 335 334 333 332 332 332 332 332 332 333 332 332 332 332 332 332
347 347 348 348 347 349 348 346 346 348 348 350 350 350 351 352 353 355 355 355 355 354 354 353 351 348 346 344 343 342 340 339 337 337 336 336 337 337 336 335 336 336 335 334 332 331 332 333 332 332 332 332 332 332 332 332 332 332 332 332 333 332 332
347 346 349 348 348 351 351 350 351 348 347 349 349 350 351 351 353 354 354 355 355 354 354 352 350 348 346 344 342 341 339 338 339 338 337 337 337 337 337 336 335 335 334 334 332 330 330 332 331 331 332 332 332 332 332 332 331 331 331 331 331 331 330
347 348 348 348 349 351 351 352 352 349 347 347 349 350 349 351 353 353 354 355 354 354 353 352 350 347 345 343 341 339 338 339 339 338 337 338 337 337 337 336 335 335 333 332 331 330 330 331 332 332 333 333 333 332 331 331 330 330 330 329 329 329 329
347 347 346 348 349 349 350 351 351 351 347 345 348 349 349 350 352 353 354 354 354 355 352 351 350 346 343 341 339 339 340 339 338 340 339 337 337 338 338 336 335 334 331 330 330 330 331 332 332 333 333 332 332 332 331 330 330 330 330 329 329 328 329
348 347 346 349 348 348 350 350 351 352 347 345 347 347 348 350 350 352 354 353 354 354 352 351 348 343 341 339 338 340 339 336 338 340 339 338 338 338 338 337 335 331 329 330 331 332 333 333 331 331 331 331 331 331 331 330 331 330 330 329 329 329 328
349 348 347 348 349 350 350 348 350 352 347 345 345 346 347 348 350 352 353 354 354 353 352 350 345 341 340 338 339 339 334 332 336 335 334 338 339 338 338 337 333 328 328 331 333 333 335 334 331 330 330 331 331 330 331 331 331 331 330 329 329 329 328
350 348 347 349 349 350 351 349 349 350 349 345 343 345 347 347 349 351 351 353 354 352 352 348 343 341 339 338 340 338 332 334 337 333 333 338 339 338 338 336 332 329 331 334 334 334 336 334 332 331 331 331 331 331 331 331 330 329 329 329 329 329 328
350 349 349 350 353 352 351 349 347 350 353 348 344 345 346 347 349 349 350 352 352 352 350 346 343 341 338 338 339 335 332 335 335 331 333 338 337 337 336 332 328 329 333 336 335 335 337 335 332 331 331 331 332 332 333 332 331 330 329 329 329 329 328
352 353 355 356 357 355 353 353 354 357 355 347 344 346 346 347 349 349 350 351 350 350 348 345 343 340 338 339 337 332 333 334 330 328 333 337 337 337 336 330 326 328 334 337 336 336 336 334 332 332 332 332 332 332 333 333 333 332 331 331 329 329 328
356 359 362 364 364 365 365 367 364 357 348 343 345 348 347 348 349 349 350 350 349 348 347 344 342 339 338 339 336 333 333 330 329 331 336 338 337 337 335 331 328 331 336 337 336 336 336 333 332 332 332 332 332 332 333 334 334 334 333 332 331 330 329
362 365 369 372 374 373 373 371 361 350 346 345 345 346 348 349 350 349 349 349 348 347 346 343 340 339 339 339 336 334 332 329 330 335 338 338 338 337 335 331 330 333 337 337 336 336 335 333 333 332 332 332 332 333 333 334 334 334 333 332 330 330 329
367 371 373 378 382 383 382 377 363 349 348 350 346 346 348 349 349 347 347 348 347 345 344 342 340 339 339 339 336 334 331 329 331 335 337 338 337 335 334 332 331 333 336 336 336 336 336 334 333 333 333 332 332 333 334 334 335 335 334 332 330 330 330
365 366 367 373 382 388 385 375 361 351 349 350 349 348 348 348 347 346 345 345 345 344 343 341 339 338 338 338 337 334 332 332 333 335 337 337 335 334 333 333 333 334 336 336 336 336 336 335 333 333 333 333 333 334 334 334 335 335 334 333 331 330 330
352 357 361 360 355 353 352 349 350 351 350 351 350 348 348 346 345 344 342 343 342 342 341 340 339 338 338 338 337 335 334 334 335 336 336 336 335 334 334 333 334 335 336 336 336 336 336 334 334 333 333 333 334 334 334 335 335 334 333 332 330 329 328
357 367 364 351 341 340 341 345 350 351 350 351 349 347 347 345 343 342 340 340 340 340 340 340 339 338 338 338 336 336 336 336 336 336 336 335 335 335 335 334 335 336 337 337 336 336 336 335 334 333 334 334 334 335 335 335 334 332 331 330 329 328 328
369 365 353 345 344 345 346 347 349 348 348 348 345 345 345 343 342 341 339 339 340 340 339 339 339 339 339 338 337 337 338 337 336 336 336 335 336 336 336 336 336 337 337 337 337 336 336 335 334 334 335 335 335 334 333 332 331 329 329 329 328 328 327
367 362 352 346 346 346 345 346 346 344 344 345 344 344 343 342 341 340 338 339 339 339 339 338 338 339 338 337 337 338 338 337 336 337 336 336 336 336 336 337 336 337 337 336 336 336 335 335 335 335 335 335 334 332 330 330 330 329 329 328 327 326 325
350 351 349 345 344 344 343 343 343 343 342 343 343 342 341 341 341 339 339 339 338 338 339 338 338 338 337 337 337 337 337 336 336 336 336 335 336 337 337 337 336 336 335 335 335 335 335 335 334 334 334 333 332 331 329 330 330 329 328 327 326 325 324
350 350 348 344 343 343 341 340 341 341 340 341 341 341 341 341 340 339 338 338 337 338 338 337 337 337 336 337 337 337 337 336 335 336 336 337 338 339 338 338 337 336 336 336 336 336 334 333 331 332 331 331 330 330 330 330 329 328 327 326 324 324 324
356 354 349 344 342 341 340 340 339 338 338 339 339 340 340 339 338 338 338 337 337 337 337 337 336 336 337 337 337 336 336 335 335 336 337 339 341 340 340 339 337 337 337 337 336 335 332 330 329 330 331 329 328 329 330 330 328 327 325 324 323 323 324
352 347 344 343 343 342 340 338 338 338 338 338 337 337 338 337 338 338 337 336 337 337 336 336 336 336 336 336 335 336 335 335 335 336 337 338 339 339 340 340 338 337 337 336 335 333 330 328 328 329 329 328 327 329 329 328 327 325 324 323 323 323 324
348 343 343 342 342 343 341 338 338 337 335 335 336 336 336 336 337 336 335 335 335 336 336 336 335 335 335 335 335 335 335 335 336 335 336 336 336 337 339 339 339 337 335 334 333 331 328 327 326 326 327 326 327 329 329 327 326 325 324 324 323 323 323
349 342 341 341 341 342 341 339 337 336 335 335 335 335 335 335 336 336 335 334 334 334 335 334 334 335 334 335 335 335 335 336 336 334 335 336 337 339 339 339 338 336 333 333 331 328 326 326 326 326 326 326 329 330 328 326 326 325 325 324 323 323 322
361 344 339 340 341 341 340 339 337 336 335 334 334 335 335 335 336 336 336 336 335 334 334 334 334 335 335 335 335 335 336 337 336 335 336 336 337 337 337 337 337 335 333 331 329 326 326 327 327 326 326 328 331 330 328 326 326 326 324 323 323 323 322
360 345 341 340 340 340 339 337 336 336 335 334 335 335 335 336 337 337 337 337 337 335 335 335 335 335 335 336 335 335 335 336 335 336 336 336 336 335 335 334 334 333 331 330 328 327 327 326 326 326 328 330 331 329 327 327 326 325 324 324 324 323 321
346 340 341 341 340 339 338 336 336 336 335 334 334 335 337 338 337 335 334 334 334 334 333 333 333 334 335 334 331 329 330 333 334 335 335 334 334 332 331 330 329 328 328 328 327 327 327 327 328 329 330 331 330 328 327 326 325 325 325 324 323 321 318
337 337 341 341 339 338 337 336 336 335 334 334 335 337 339 338 334 332 331 332 331 330 328 329 331 331 330 329 325 323 327 331 333 333 332 332 330 329 327 326 325 325 326 326 327 328 328 328 329 329 328 328 326 326 325 324 324 324 323 321 320 318 316
337 338 340 340 339 338 336 336 336 336 335 335 336 338 339 336 333 332 332 331 329 328 328 328 328 326 325 326 327 327 329 331 331 331 331 330 329 328 326 325 325 325 326 326 327 328 327 327 326 325 325 324 323 323 322 321 321 320 318 317 317 316 315
338 339 340 340 339 338 337 336 336 335 335 335 337 338 336 334 333 332 331 329 328 328 329 328 327 325 325 328 331 331 331 331 331 331 329 328 327 326 326 325 325 324 323 324 324 324 324 324 323 323 322 322 321 321 320 319 317 316 315 315 315 315 314
Wind_Speed
14 14 14 13 13 14 14 15 19 23 25 27 29 31 33 34 34 33 34 35 36 36 36 36 37 36 35 35 33 31 30 29 28 27 24 22 21 20 19 18 18 17 17 16 14 13 12 12 12 10 9 9 9 8 7 7 7 6 6 6 6 6 6
13 13 13 13 14 15 15 16 20 23 25 28 30 31 33 34 35 36 36 36 37 38 38 37 38 37 37 37 34 33 32 31 29 27 24 23 22 21 20 19 18 18 17 16 14 13 14 13 12 11 11 11 10 8 8 8 7 6 6 7 8 8 8
13 13 14 14 15 16 15 15 20 25 27 28 30 31 34 37 39 40 39 38 39 39 37 38 39 38 38 38 36 34 33 32 30 27 26 25 24 22 20 19 18 17 16 15 14 14 14 13 13 12 11 10 10 9 9 8 8 7 7 8 10 11 11
15 15 15 16 16 15 13 15 20 25 28 31 34 36 38 40 41 41 40 40 40 39 40 41 40 39 39 38 37 36 35 34 31 28 27 26 24 22 20 19 18 17 16 15 14 14 14 13 13 13 11 10 10 9 9 9 9 9 9 9 10 11 12
16 15 13 14 14 13 12 14 19 25 28 31 34 36 37 39 38 37 38 39 39 41 43 41 39 38 38 38 38 37 37 35 31 29 28 26 24 21 20 20 19 18 17 15 14 15 15 15 14 13 12 11 10 9 8 8 9 10 11 11 11 11 12
14 13 12 13 13 13 13 14 21 28 30 32 35 37 36 35 34 35 37 36 37 39 39 37 37 37 38 38 37 37 36 34 31 30 29 27 23 21 20 20 19 18 17 15 15 16 16 16 15 14 13 12 10 9 9 9 9 10 11 11 12 12 12
13 12 13 13 13 14 14 15 21 28 31 32 33 33 32 32 33 34 34 34 36 37 37 36 37 38 38 37 36 37 37 35 32 31 30 27 23 21 19 19 20 19 17 15 16 17 17 17 16 15 14 13 12 11 10 11 11 11 11 12 12 13 13
14 13 14 15 14 14 13 13 18 25 27 27 27 28 30 32 32 32 33 35 36 36 37 38 39 39 37 36 36 38 39 37 34 32 29 26 23 21 20 20 21 20 18 17 17 17 18 18 17 16 15 14 14 13 13 13 13 13 13 14 15 15 15
14 14 16 15 14 13 12 13 18 22 24 26 27 29 31 32 33 34 35 36 35 36 39 40 39 38 37 36 38 41 41 36 33 31 29 26 24 22 21 21 21 20 19 18 18 18 19 19 17 16 16 15 15 14 15 16 16 16 16 17 18 19 18
14 15 15 14 13 11 9 10 14 16 19 23 26 28 30 31 33 34 35 35 35 38 41 39 36 36 35 36 40 41 36 28 24 26 27 27 25 23 22 21 21 21 20 19 18 19 20 19 18 17 17 17 17 17 17 18 17 17 17 17 18 18 17
13 14 14 13 11 9 9 10 11 13 17 23 26 28 30 32 33 34 35 37 37 39 40 36 34 35 36 38 39 34 27 25 24 27 29 28 26 24 23 22 22 22 20 19 19 20 21 20 19 19 19 19 19 19 18 16 15 15 14 14 13 13 14
12 12 13 13 12 10 10 11 12 13 17 23 26 28 30 32 34 35 36 38 39 38 37 35 35 35 36 35 29 25 26 29 32 31 31 30 28 25 24 23 23 22 20 20 21 21 20 19 19 20 20 20 19 18 16 15 14 13 12 11 11 12 13
12 12 12 13 12 11 11 11 12 14 17 22 26 28 30 32 34 35 35 37 38 37 35 35 33 30 28 24 21 25 29 31 31 29 28 28 27 24 24 24 23 21 19 21 23 22 19 18 19 20 20 19 18 17 17 16 15 14 13 12 12 13 14
12 11 11 11 11 11 11 12 12 13 15 20 24 27 29 31 33 34 35 36 36 35 33 30 26 23 24 24 25 31 34 31 27 24 24 25 25 25 25 25 22 20 21 24 24 22 19 18 19 20 19 19 18 18 18 17 15 14 14 14 14 15 16
11 12 12 12 12 11 11 12 12 12 13 18 22 24 26 28 29 30 32 32 32 32 29 24 24 25 29 31 31 37 39 32 26 25 25 26 27 28 28 26 23 22 26 29 26 23 21 20 20 20 20 19 18 18 18 17 16 16 16 16 16 17 17
13 13 14 13 11 10 11 11 11 10 10 13 18 21 23 25 27 29 30 30 30 30 26 24 28 32 34 36 35 38 37 31 26 27 28 29 31 31 28 26 26 27 30 31 28 25 24 23 22 22 20 18 16 16 16 17 17 17 17 17 18 18 18
12 12 11 10 9 9 8 7 6 5 6 9 15 19 22 23 25 27 27 28 28 25 23 27 33 35 35 35 35 34 32 30 30 31 30 31 32 32 28 27 32 33 32 32 31 28 26 25 25 24 20 16 14 14 15 16 17 17 18 18 18 18 19
11 10 9 8 7 7 7 6 6 6 7 9 13 16 18 20 20 21 22 23 22 20 23 30 34 33 32 33 35 35 34 35 37 37 36 35 35 36 34 31 32 33 34 35 33 30 28 28 27 25 20 17 16 17 17 18 18 17 18 18 18 19 20
9 8 7 7 7 7 7 6 7 8 10 12 16 19 21 22 21 20 20 20 19 22 27 32 34 34 35 38 42 42 40 41 40 39 39 38 39 40 37 32 30 32 35 35 34 32 30 30 29 25 20 19 19 19 20 20 19 18 18 19 19 19 20
7 7 6 7 7 8 8 7 7 10 13 16 20 23 24 24 24 23 23 23 25 28 32 35 37 38 39 40 42 43 43 43 42 40 40 40 41 41 36 31 31 32 33 34 34 33 31 31 30 25 22 21 20 20 21 21 20 20 19 19 20 20 20
6 7 6 7 7 7 7 7 8 10 13 15 17 19 21 23 24 25 26 28 31 32 35 36 35 35 35 35 37 41 43 43 43 43 42 39 34 31 29 29 31 33 34 33 34 34 33 32 30 26 24 21 20 20 21 21 20 20 21 22 21 20 18
8 8 8 8 7 7 8 9 10 12 13 14 15 18 21 23 25 26 27 30 32 33 34 35 33 33 34 36 37 40 42 42 41 39 35 29 26 26 28 30 32 34 34 33 33 34 32 30 29 27 23 20 20 21 21 21 20 21 22 22 19 16 14
8 7 7 6 5 5 7 9 10 12 14 15 16 19 23 25 26 27 27 28 29 31 32 33 34 34 36 37 38 39 39 39 37 32 26 25 29 32 33 32 33 35 34 32 33 32 31 30 29 25 22 21 21 21 20 20 21 21 20 17 14 12 12
5 5 5 5 4 3 5 8 10 13 15 17 17 19 23 25 26 27 26 25 27 29 31 32 32 33 35 36 38 40 40 36 32 30 27 28 33 34 33 33 33 34 33 32 33 33 31 30 27 24 22 22 20 19 18 19 18 16 14 11 11 13 15
6 6 6 7 8 10 11 13 13 13 14 16 18 20 23 26 27 27 25 26 28 29 29 30 31 33 36 38 39 40 38 32 29 30 33 36 36 35 34 33 33 32 32 32 32 31 29 28 25 23 20 17 15 14 15 15 13 11 10 10 12 14 15
6 6 7 8 9 12 16 16 15 15 16 18 20 21 24 26 27 26 25 26 28 28 28 30 33 35 36 35 35 35 31 28 31 36 39 39 36 31 30 28 27 25 24 25 27 27 26 24 22 20 17 14 12 12 12 12 11 10 11 12 12 13 12
6 6 7 7 8 11 14 14 13 14 15 17 19 22 24 26 25 23 25 26 26 26 28 30 31 31 30 28 29 29 28 28 34 40 39 33 26 23 23 23 20 16 15 17 19 21 21 19 17 18 16 13 11 11 12 13 13 11 11 11 10 11 12
7 7 7 6 7 9 11 10 8 9 12 15 19 22 25 26 24 22 22 21 19 20 22 23 23 23 24 24 25 27 27 28 32 34 28 21 18 20 23 22 19 18 18 19 19 18 15 12 13 15 13 10 9 12 14 14 13 11 10 10 10 11 12
5 5 3 4 5 8 9 9 9 10 11 15 19 21 22 22 18 15 13 11 11 15 17 17 18 20 22 23 24 26 25 24 25 24 19 16 17 21 22 20 19 21 24 25 23 17 13 13 14 14 13 12 12 14 14 13 12 10 10 10 11 12 13
3 2 2 4 6 8 9 8 9 10 11 14 16 16 16 14 11 10 11 9 10 13 15 16 18 19 20 21 21 21 21 20 21 20 18 16 17 20 21 20 20 21 22 23 22 18 15 15 14 14 15 16 16 16 15 14 12 11 11 11 11 12 12
4 4 4 4 6 8 9 9 9 10 10 11 12 12 10 9 9 11 11 9 10 13 15 16 16 16 16 16 15 15 16 17 16 15 16 19 22 24 23 21 21 21 19 20 21 19 18 16 13 14 16 19 19 18 16 14 12 12 12 11 11 10 10
4 4 3 4 7 9 9 8 8 9 10 9 9 10 9 8 9 11 9 8 9 12 14 15 14 12 11 10 11 12 13 12 11 15 21 24 24 23 21 21 21 21 20 20 20 17 16 14 14 14 16 19 18 17 16 14 14 14 12 11 9 9 8
2 1 4 6 8 9 9 9 9 9 10 10 9 10 10 8 8 9 7 6 7 10 12 13 13 13 12 12 13 12 12 11 12 16 19 19 19 18 19 19 21 22 22 22 20 18 15 15 15 16 17 17 16 16 15 15 15 14 12 10 9 8 9
2 3 5 7 9 9 10 10 8 8 10 11 12 12 11 11 10 10 10 10 10 11 13 12 12 11 11 11 9 6 8 11 11 13 15 17 17 16 15 16 19 22 23 22 21 20 16 14 16 17 18 17 16 15 15 15 15 14 11 9 10 10 11
4 5 7 9 11 12 12 10 8 10 12 14 15 15 14 15 17 18 19 19 17 15 15 12 10 9 8 6 6 5 7 12 12 13 16 17 16 14 14 14 17 19 19 19 19 18 14 13 15 17 15 14 14 15 15 15 14 12 10 10 11 12 12
5 7 9 11 12 12 12 11 12 13 15 16 18 19 20 22 23 24 23 22 20 18 18 17 15 14 10 7 9 13 15 15 14 14 16 16 16 16 15 14 14 14 15 15 15 13 12 12 13 12 12 12 12 12 12 11 11 10 11 11 12 11 10
7 9 11 13 14 12 12 14 16 16 18 19 20 22 24 25 26 24 22 21 20 17 16 16 15 13 12 13 17 19 18 16 15 16 17 17 17 17 16 14 12 11 11 11 11 11 12 12 11 10 10 10 10 10 10 9 8 9 9 10 10 9 8
7 10 12 13 14 14 14 16 18 19 20 22 23 24 26 26 25 23 21 19 17 13 10 12 13 13 14 19 21 19 17 17 17 18 18 18 18 17 16 15 13 11 10 10 11 11 11 11 10 10 9 9 8 9 9 8 8 8 8 8 8 7 6
Wind_Direction
189 192 193 194 197 199 201 197 192 192 192 193 195 195 196 199 200 202 204 205 207 209 210 210 210 212 213 214 216 216 214 214 213 212 213 215 215 214 213 212 211 210 207 207 210 208 202 197 196 207 224 227 224 221 223 233 237 235 241 254 260 258 257
188 194 195 193 198 202 202 195 191 192 193 195 197 197 197 199 200 202 204 205 207 210 210 210 210 211 212 213 214 214 213 214 212 213 214 212 213 216 218 217 213 211 210 213 215 211 207 209 214 224 232 231 226 226 235 236 228 229 242 255 260 261 262
192 195 193 194 201 202 198 191 192 194 195 196 197 198 200 201 201 203 204 205 207 209 210 211 211 211 211 211 212 212 212 211 211 212 212 210 211 215 217 216 214 214 216 219 221 215 212 213 215 221 225 225 227 232 239 234 228 235 249 260 265 264 263
195 196 193 197 202 201 195 191 193 195 197 198 199 200 202 203 203 203 205 205 206 207 209 211 211 210 209 209 209 210 209 209 211 213 212 210 212 214 212 212 213 215 219 222 220 214 209 207 208 216 222 225 231 239 244 241 238 242 247 253 259 259 261
197 195 193 199 202 201 197 193 195 197 199 201 202 203 205 205 204 204 206 207 207 208 210 211 209 208 209 208 208 208 207 208 211 212 211 210 211 211 210 210 211 215 219 218 214 209 207 207 212 219 224 227 234 240 244 244 244 246 246 246 251 256 261
194 190 193 199 200 202 198 194 197 198 200 201 202 205 206 206 205 206 207 208 209 211 212 211 209 208 208 206 205 204 206 209 211 211 211 210 210 209 208 209 210 215 216 211 209 209 211 215 218 223 227 230 234 238 240 244 245 246 244 243 249 258 265
189 191 196 200 201 203 199 196 199 201 203 204 203 205 206 206 207 208 209 209 210 211 211 211 210 208 207 204 201 201 204 208 210 210 210 210 209 209 208 210 213 215 213 208 210 214 219 222 222 227 234 236 238 241 245 251 254 255 253 252 255 261 267
190 192 197 202 203 202 198 196 198 200 202 203 202 204 205 206 208 208 209 210 211 211 211 211 210 207 205 201 198 200 205 207 207 208 209 209 209 211 211 212 214 213 211 210 214 220 225 226 226 233 240 241 244 250 256 261 265 267 267 266 266 266 266
193 196 201 204 202 200 198 196 196 196 198 199 201 203 204 205 207 208 210 210 210 211 213 213 210 206 203 199 197 200 204 205 203 203 206 208 210 212 214 214 215 215 215 216 220 224 226 227 230 238 244 247 251 257 262 268 271 272 272 271 270 268 267
197 201 206 206 202 199 193 187 189 192 196 199 202 204 204 205 207 209 210 211 210 213 215 213 209 205 202 199 199 200 197 193 197 203 206 210 213 215 216 217 219 220 220 221 225 227 227 229 234 239 245 249 252 258 264 268 270 271 272 272 271 270 269
199 202 208 208 201 191 180 178 185 190 195 199 202 203 203 204 207 209 210 211 211 214 215 212 207 204 201 200 198 191 177 176 195 208 210 212 216 217 218 221 223 224 223 225 230 231 229 231 235 240 246 249 253 260 264 266 267 267 268 269 270 271 271
199 202 205 206 198 189 185 185 189 192 196 200 202 202 203 205 207 209 211 212 213 214 214 209 206 203 201 198 188 166 161 180 199 209 213 215 216 218 221 224 227 228 227 230 234 234 232 236 242 248 252 254 257 261 262 262 263 262 262 266 270 271 274
199 202 203 204 200 194 192 192 194 197 199 202 203 204 205 206 207 208 210 212 213 214 212 209 205 199 192 183 161 148 164 188 202 209 219 222 220 222 225 226 230 233 233 236 237 235 236 242 249 253 253 252 253 255 255 258 258 256 259 269 274 273 276
199 201 203 205 203 198 196 198 200 200 200 203 204 206 208 208 210 210 211 213 213 212 211 206 194 182 174 166 155 156 172 192 202 208 223 229 227 230 230 228 230 228 229 236 238 235 238 244 248 248 245 244 247 250 252 253 251 250 259 270 274 272 273
196 202 205 206 204 200 199 203 206 204 202 203 204 206 209 210 212 213 214 215 213 211 209 194 174 171 171 169 165 167 177 190 194 199 217 227 228 231 229 229 231 223 222 232 236 236 240 246 247 242 238 239 244 248 249 248 249 253 261 267 268 267 269
196 202 204 206 204 200 203 208 210 206 203 204 205 206 209 210 211 213 214 214 213 210 200 178 169 174 175 172 172 172 174 180 186 197 215 225 227 226 224 230 238 233 229 233 236 239 243 246 241 234 232 235 240 244 247 248 252 255 258 261 264 266 268
198 201 202 202 200 200 208 210 202 194 195 203 209 210 211 212 213 213 214 213 211 204 185 173 175 177 174 171 169 164 164 173 185 198 214 223 224 220 220 232 240 238 237 237 237 240 244 241 232 228 230 236 241 248 250 252 254 254 256 260 263 267 269
194 196 195 192 191 193 198 194 183 184 190 199 207 211 214 216 215 214 214 212 205 190 176 175 175 171 166 166 164 162 166 178 188 198 210 217 216 213 219 231 237 238 240 239 238 240 240 234 228 228 234 243 250 253 254 256 259 259 263 267 268 270 270
187 190 187 179 178 181 187 192 191 194 197 197 203 209 212 212 209 208 208 203 191 179 175 175 172 167 165 165 167 169 174 182 193 204 211 214 211 212 220 231 235 237 241 240 238 239 235 230 228 232 240 248 251 253 257 262 266 269 272 276 278 277 272
182 183 181 177 181 188 190 189 189 196 202 205 208 211 209 206 203 201 198 192 185 179 176 175 174 173 170 168 169 174 178 184 194 205 211 213 212 212 220 230 235 238 242 240 238 236 232 229 230 235 243 249 251 255 262 268 271 275 279 281 284 282 276
183 174 175 183 190 193 186 175 172 180 192 201 205 202 197 195 193 191 188 186 183 179 176 176 175 173 172 170 170 178 184 188 196 205 209 211 212 214 223 234 237 237 240 240 237 235 233 231 231 237 243 249 254 258 264 271 276 279 279 280 285 287 280
179 174 178 183 185 185 183 187 187 181 181 185 187 185 185 186 186 183 182 182 181 178 175 174 173 172 175 176 177 184 190 192 199 205 207 206 210 222 236 243 240 236 237 240 238 235 234 232 233 238 245 252 258 262 267 275 280 279 278 281 285 284 280
164 167 174 175 181 199 206 205 194 182 177 176 178 181 183 182 181 178 175 175 177 175 173 174 176 177 179 180 183 190 194 195 197 198 201 207 213 224 238 243 239 236 237 238 237 235 232 233 235 240 248 254 259 264 270 278 282 281 278 278 278 278 284
123 131 139 140 138 165 195 193 183 178 177 174 176 183 183 179 176 173 170 171 173 174 176 179 181 182 182 182 186 192 197 197 191 188 196 209 217 228 240 242 237 236 237 236 236 235 234 235 239 243 250 256 260 266 274 280 282 278 271 270 276 283 288
114 114 122 136 146 156 168 173 171 169 171 174 178 182 182 178 174 170 169 173 176 178 181 184 185 186 186 188 190 195 197 193 185 187 199 210 218 231 241 240 237 239 239 237 237 236 237 238 239 243 248 250 254 268 281 280 272 264 265 276 285 287 285
117 123 124 134 153 163 166 166 163 163 174 183 183 181 179 176 173 172 173 177 180 183 187 188 190 192 192 191 192 193 192 185 183 191 203 211 220 234 242 242 243 244 243 239 237 237 239 240 238 236 234 228 236 259 272 265 256 262 276 286 287 283 278
77 93 109 132 158 165 164 165 168 172 183 189 183 178 177 176 174 175 178 180 185 189 192 193 194 194 192 191 191 189 188 185 187 194 203 213 226 239 242 241 242 243 242 243 244 244 243 237 225 216 211 213 232 250 251 250 257 270 280 284 282 277 272
58 70 88 124 157 166 164 169 177 177 182 187 183 180 180 179 178 180 181 181 186 192 194 194 193 192 192 191 189 187 187 188 190 196 205 218 229 234 234 232 230 230 233 238 241 242 234 212 192 192 201 218 240 243 241 247 259 269 274 275 271 267 265
48 59 95 146 175 184 180 180 182 177 179 184 184 184 184 181 179 174 167 168 183 192 194 192 190 191 191 189 190 191 190 190 193 201 214 226 231 235 237 234 229 230 233 234 234 228 205 180 176 189 210 233 244 242 242 247 254 260 262 263 261 259 260
70 88 188 203 204 201 195 189 184 179 180 183 183 184 186 180 166 148 144 156 180 189 191 192 191 190 189 188 190 192 195 200 206 214 225 237 246 250 249 242 237 237 237 236 234 219 186 175 189 205 219 233 239 238 236 239 245 249 251 252 253 254 257
149 164 204 232 223 212 209 204 193 182 176 177 177 176 175 170 156 147 148 159 173 178 182 185 186 184 184 186 188 193 203 213 219 232 247 253 253 252 248 243 239 237 233 229 226 209 182 179 202 215 219 227 230 226 224 229 237 241 243 245 247 252 260
124 146 187 226 224 219 216 209 197 183 166 158 162 163 159 158 158 154 154 164 171 173 173 173 172 175 180 190 203 213 220 227 237 250 256 255 252 248 247 245 239 231 223 218 213 198 181 192 218 225 224 227 225 217 216 224 231 235 237 239 243 255 268
43 189 210 225 226 221 212 203 195 180 155 142 147 150 144 142 144 144 147 162 175 179 179 178 179 183 190 200 209 215 217 221 237 251 256 257 256 250 247 245 237 226 220 215 208 197 193 210 229 234 231 226 217 211 216 223 226 228 232 238 250 263 272
293 252 233 231 226 215 209 205 192 164 140 138 146 147 140 134 131 130 134 139 148 159 163 166 173 177 180 185 186 196 220 231 246 263 266 263 256 247 238 233 228 222 218 213 208 206 208 218 225 225 222 218 210 208 213 219 222 226 233 246 258 266 268
237 229 220 219 215 208 204 194 171 149 141 144 151 151 146 141 137 134 131 129 130 131 124 117 126 144 157 161 146 163 233 251 259 261 255 244 232 221 210 205 205 206 206 208 211 216 225 232 228 219 213 209 207 207 214 223 230 235 242 252 258 261 258
209 204 201 201 201 201 193 176 161 151 150 154 156 154 150 146 140 135 132 130 129 123 113 112 124 136 146 171 189 196 216 237 244 239 232 221 208 198 191 187 190 195 200 208 215 218 218 220 217 208 200 200 205 213 226 239 245 242 242 249 253 248 237
192 189 191 189 185 182 174 165 161 158 158 161 158 152 148 146 142 140 140 138 132 122 119 132 149 155 165 195 211 215 222 232 233 226 219 211 202 194 186 180 183 193 199 202 203 199 195 195 194 194 198 204 210 215 221 228 232 231 233 238 236 224 213
216 198 191 186 180 174 168 166 166 164 163 162 156 150 148 147 147 148 148 147 151 161 171 177 185 193 203 214 223 228 230 227 223 217 210 202 195 191 188 184 179 176 180 184 185 185 187 190 192 195 199 202 205 205 203 201 204 212 220 220 211 204 209